Regional Weather Roundup
Issued by NWS

Home | Current Version | Previous Version | Graphics & Text | Print | Product List | Glossary On
Versions: 1 2 3 4 5 6 7 8 9 10 11 12 13 14 15 16 17 18 19 20 21 22 23 24 25 26 27 28 29 30 31 32 33 34 35 36 37 38 39 40 41 42 43 44 45 46 47 48 49 50
000
ASUS43 KLMK 301510
RWRKY
KENTUCKY REGIONAL WEATHER ROUNDUP
NATIONAL WEATHER SERVICE LOUISVILLE KY
1000 AM EST FRI JAN 30 2015

NOTE "FAIR" INDICATES FEW OR NO CLOUDS BELOW 12,000 FEET
WITH NO SIGNIFICANT WEATHER AND/OR OBSTRUCTIONS TO VISIBILITY.

KYZ001>023-026-027-061>063-070>075-301600-
WESTERN AND SOUTH CENTRAL KENTUCKY

CITY           SKY/WX    TMP DP  RH WIND       PRES   REMARKS
PADUCAH        PTSUNNY   35  23  61 N8        30.51R WCI  29
HENDERSON      SUNNY     34  19  55 NW10      30.51R WCI  26
OWENSBORO      SUNNY     34  24  67 N13G20    30.51R WCI  25
HOPKINSVILLE   CLOUDY    35  24  65 NW7       30.48R WCI  29
BOWLING GREEN  SUNNY     36  22  56 NW10G18   30.47R WCI  28
GLASGOW        CLOUDY    35  25  66 NW10      30.44S WCI  27
$$

KYZ024-025-028>034-038-045-046-053-301600-
NORTH CENTRAL KENTUCKY

CITY           SKY/WX    TMP DP  RH WIND       PRES   REMARKS
LOUISVILLE/SDF PTSUNNY   35  23  61 N18G26    30.45R WCI  24
LOUISVILLE/LOU CLOUDY    34  22  61 N12G20    30.45R WCI  25
FORT KNOX      FLURRIES  32  25  74 W12       30.43R WCI  23
$$

KYZ035>037-039>044-047>052-055>060-089>105-301600-
NORTHEAST KENTUCKY

CITY           SKY/WX    TMP DP  RH WIND       PRES   REMARKS
LEXINGTON      FLURRIES  32  24  72 NW14      30.40R WCI  22
COVINGTON      FLURRIES  27  16  63 N18       30.42R WCI  14
FRANKFORT      CLOUDY    33  22  63 N13G20    30.40R WCI  24
$$

KYZ054-064>069-076>088-106>120-301600-
SOUTHEAST KENTUCKY

CITY           SKY/WX    TMP DP  RH WIND       PRES   REMARKS
JACKSON        FLURRIES  32  23  69 NW8G16    30.31R WCI  25
LONDON         PTSUNNY   37  18  46 N12G22    30.36R WCI  29
SOMERSET       CLOUDY    34  23  64 N6        30.41R WCI  29
MIDDLESBORO    CLOUDY    34  24  67 NW9G23    30.35R WCI  27
MONTICELLO     FLURRIES  34  27  76 NW13      30.43R WCI  25
$$



USA.gov is the U.S. government's official web portal to all federal, state and local government web resources and services.